User: anonymous   Login
Location: Unspecified
(0.0000°N, 0.0000°E)
Time: 22:15:10
(UTC+01:00)
Language:

Cosmos 1437 - Orbit

View from above orbital plane
View from above orbital plane
View from above satellite
View from above satellite

Ground track
Ground track

The orbit data is extracted from the following two-line orbital elements,

1 13770U 83003A   16038.94620452 +.00013307 +00000-0 +28685-3 0  9998
2 13770 081.1593 033.7124 0007598 185.3930 174.7233 15.44419752809618
Epoch (UTC): 07 February 2016 22:42:32
Eccentricity: 0.0007598
inclination: 81.1593°
perigee height: 428 km
apogee height: 438 km
right ascension of ascending node: 33.7124°
argument of perigee: 185.3930°
revolutions per day: 15.44419752
mean anomaly at epoch: 174.7233°
orbit number at epoch: 80961

The dashed part of the orbit path shows where the satellite is in the earth's shadow,  

DLR